| time (UTC) | temp F | wind direction | speed MPH | gust MPH | rain 1hr in | rain 24hr in | rain mn in | humidity % | barometer mb |
| 20260510051529 | 57 | 0 | 0.0 | 0.0 | 0.00 | 0.00 | 0.00 | 24 | 1019.0 |
| 20260510051029 | 57 | 0 | 0.0 | 0.0 | 0.00 | 0.00 | 0.00 | 23 | 1019.0 |
| 20260510050529 | 57 | 28 | 2.0 | 4.0 | 0.00 | 0.00 | 0.00 | 23 | 1019.0 |
| 20260510050029 | 57 | 18 | 4.0 | 5.0 | 0.00 | 0.00 | 0.00 | 23 | 1018.0 |
| 20260510045529 | 57 | 24 | 1.0 | 2.0 | 0.00 | 0.00 | 0.00 | 23 | 1018.0 |
| 20260510045029 | 57 | 23 | 3.0 | 4.0 | 0.00 | 0.00 | 0.00 | 23 | 1018.0 |
| 20260510044529 | 57 | 0 | 0.0 | 0.0 | 0.00 | 0.00 | 0.00 | 22 | 1018.0 |
| 20260510044029 | 57 | 0 | 0.0 | 0.0 | 0.00 | 0.00 | 0.00 | 24 | 1018.0 |
| 20260510043529 | 57 | 98 | 3.0 | 3.0 | 0.00 | 0.00 | 0.00 | 23 | 1018.0 |
| 20260510043029 | 57 | 58 | 1.0 | 3.0 | 0.00 | 0.00 | 0.00 | 25 | 1018.0 |
| 20260510042529 | 57 | 0 | 0.0 | 0.0 | 0.00 | 0.00 | 0.00 | 29 | 1018.0 |
| 20260510042029 | 58 | 0 | 0.0 | 0.0 | 0.00 | 0.00 | 0.00 | 25 | 1018.0 |
| 20260510041530 | 58 | 0 | 0.0 | 0.0 | 0.00 | 0.00 | 0.00 | 22 | 1018.0 |
| 20260510041031 | 58 | 0 | 0.0 | 0.0 | 0.00 | 0.00 | 0.00 | 21 | 1018.0 |
| 20260510040529 | 59 | 0 | 0.0 | 0.0 | 0.00 | 0.00 | 0.00 | 23 | 1018.0 |
| 20260510040031 | 59 | 0 | 0.0 | 0.0 | 0.00 | 0.00 | 0.00 | 22 | 1018.0 |
| 20260510035529 | 59 | 0 | 0.0 | 0.0 | 0.00 | 0.00 | 0.00 | 21 | 1018.0 |
| 20260510035029 | 59 | 0 | 0.0 | 0.0 | 0.00 | 0.00 | 0.00 | 20 | 1018.0 |
| 20260510034530 | 60 | 2 | 2.0 | 4.0 | 0.00 | 0.00 | 0.00 | 22 | 1018.0 |
| 20260510034029 | 60 | 20 | 4.0 | 5.0 | 0.00 | 0.00 | 0.00 | 20 | 1018.0 |
| 20260510033530 | 60 | 30 | 3.0 | 4.0 | 0.00 | 0.00 | 0.00 | 20 | 1018.0 |
| 20260510033029 | 60 | 27 | 2.0 | 4.0 | 0.00 | 0.00 | 0.00 | 20 | 1018.0 |
| 20260510032530 | 60 | 44 | 3.0 | 4.0 | 0.00 | 0.00 | 0.00 | 19 | 1018.0 |
| 20260510032031 | 61 | 59 | 3.0 | 3.0 | 0.00 | 0.00 | 0.00 | 18 | 1017.0 |
| 20260510031532 | 62 | 52 | 3.0 | 3.0 | 0.00 | 0.00 | 0.00 | 20 | 1017.0 |
| 20260510031029 | 62 | 7 | 1.0 | 1.0 | 0.00 | 0.00 | 0.00 | 19 | 1017.0 |
| 20260510030531 | 63 | 47 | 0.0 | 2.0 | 0.00 | 0.00 | 0.00 | 18 | 1017.0 |
| 20260510030031 | 63 | 353 | 3.0 | 6.0 | 0.00 | 0.00 | 0.00 | 16 | 1017.0 |
| 20260510025529 | 64 | 331 | 2.0 | 5.0 | 0.00 | 0.00 | 0.00 | 16 | 1017.0 |
| 20260510025029 | 64 | 325 | 1.0 | 5.0 | 0.00 | 0.00 | 0.00 | 15 | 1017.0 |
| 20260510024529 | 64 | 350 | 1.0 | 4.0 | 0.00 | 0.00 | 0.00 | 16 | 1017.0 |
| 20260510024029 | 65 | 333 | 3.0 | 5.0 | 0.00 | 0.00 | 0.00 | 15 | 1017.0 |
| 20260510023529 | 65 | 336 | 5.0 | 9.0 | 0.00 | 0.00 | 0.00 | 14 | 1017.0 |
| 20260510023030 | 66 | 328 | 7.0 | 10.0 | 0.00 | 0.00 | 0.00 | 13 | 1017.0 |
| 20260510022529 | 67 | 332 | 8.0 | 11.0 | 0.00 | 0.00 | 0.00 | 14 | 1017.0 |
| 20260510022031 | 68 | 333 | 7.0 | 9.0 | 0.00 | 0.00 | 0.00 | 13 | 1017.0 |
| 20260510021529 | 69 | 339 | 8.0 | 11.0 | 0.00 | 0.00 | 0.00 | 13 | 1017.0 |
| 20260510021031 | 70 | 357 | 8.0 | 10.0 | 0.00 | 0.00 | 0.00 | 12 | 1017.0 |
| 20260510020530 | 70 | 349 | 6.0 | 9.0 | 0.00 | 0.00 | 0.00 | 11 | 1017.0 |
| 20260510020029 | 70 | 357 | 5.0 | 7.0 | 0.00 | 0.00 | 0.00 | 11 | 1017.0 |
| 20260510015531 | 71 | 340 | 4.0 | 9.0 | 0.00 | 0.00 | 0.00 | 11 | 1017.0 |
| 20260510015029 | 71 | 345 | 8.0 | 18.0 | 0.00 | 0.00 | 0.00 | 10 | 1017.0 |
| 20260510014530 | 71 | 345 | 5.0 | 8.0 | 0.00 | 0.00 | 0.00 | 11 | 1017.0 |
| 20260510014029 | 72 | 33 | 6.0 | 12.0 | 0.00 | 0.00 | 0.00 | 10 | 1017.0 |
| 20260510013529 | 72 | 357 | 9.0 | 13.0 | 0.00 | 0.00 | 0.00 | 10 | 1017.0 |
| 20260510013030 | 72 | 343 | 7.0 | 11.0 | 0.00 | 0.00 | 0.00 | 11 | 1017.0 |
| 20260510012529 | 72 | 345 | 6.0 | 10.0 | 0.00 | 0.00 | 0.00 | 12 | 1017.0 |
| 20260510012030 | 72 | 303 | 5.0 | 9.0 | 0.00 | 0.00 | 0.00 | 11 | 1017.0 |
| 20260510011529 | 72 | 319 | 4.0 | 8.0 | 0.00 | 0.00 | 0.00 | 10 | 1017.0 |
| 20260510011030 | 72 | 317 | 3.0 | 7.0 | 0.00 | 0.00 | 0.00 | 11 | 1017.0 |
| 20260510010529 | 72 | 332 | 8.0 | 13.0 | 0.00 | 0.00 | 0.00 | 10 | 1017.0 |
| 20260510010030 | 72 | 337 | 7.0 | 12.0 | 0.00 | 0.00 | 0.00 | 11 | 1017.0 |
| 20260510005529 | 72 | 351 | 9.0 | 18.0 | 0.00 | 0.00 | 0.00 | 11 | 1017.0 |
| 20260510005030 | 72 | 331 | 8.0 | 14.0 | 0.00 | 0.00 | 0.00 | 10 | 1017.0 |
| 20260510004529 | 72 | 325 | 9.0 | 16.0 | 0.00 | 0.00 | 0.00 | 11 | 1017.0 |
| 20260510004030 | 72 | 335 | 8.0 | 16.0 | 0.00 | 0.00 | 0.00 | 10 | 1017.0 |
| 20260510003529 | 72 | 332 | 9.0 | 17.0 | 0.00 | 0.00 | 0.00 | 12 | 1017.0 |
| 20260510003031 | 72 | 313 | 8.0 | 18.0 | 0.00 | 0.00 | 0.00 | 12 | 1017.0 |
| 20260510002529 | 72 | 14 | 6.0 | 14.0 | 0.00 | 0.00 | 0.00 | 12 | 1017.0 |
| 20260510002030 | 72 | 340 | 9.0 | 18.0 | 0.00 | 0.00 | 0.00 | 10 | 1017.0 |
| 20260510001530 | 72 | 316 | 9.0 | 13.0 | 0.00 | 0.00 | 0.00 | 11 | 1017.0 |
| 20260510001029 | 71 | 295 | 11.0 | 16.0 | 0.00 | 0.00 | 0.00 | 10 | 1017.0 |
| 20260510000529 | 72 | 293 | 13.0 | 22.0 | 0.00 | 0.00 | 0.00 | 11 | 1017.0 |
| 20260510000030 | 72 | 298 | 12.0 | 16.0 | 0.00 | 0.00 | 0.00 | 11 | 1017.0 |
| 20260509235529 | 71 | 297 | 11.0 | 21.0 | 0.00 | 0.00 | 0.00 | 10 | 1017.0 |
| 20260509235029 | 71 | 351 | 10.0 | 19.0 | 0.00 | 0.00 | 0.00 | 10 | 1017.0 |
| 20260509234530 | 71 | 316 | 9.0 | 14.0 | 0.00 | 0.00 | 0.00 | 9 | 1017.0 |
| 20260509234030 | 71 | 320 | 11.0 | 24.0 | 0.00 | 0.00 | 0.00 | 9 | 1017.0 |
| 20260509233530 | 71 | 298 | 13.0 | 20.0 | 0.00 | 0.00 | 0.00 | 8 | 1017.0 |
| 20260509233031 | 71 | 309 | 12.0 | 20.0 | 0.00 | 0.00 | 0.00 | 10 | 1017.0 |
| 20260509232531 | 71 | 329 | 12.0 | 17.0 | 0.00 | 0.00 | 0.00 | 11 | 1017.0 |
| 20260509232030 | 72 | 297 | 10.0 | 16.0 | 0.00 | 0.00 | 0.00 | 13 | 1017.0 |
| 20260509231531 | 72 | 319 | 7.0 | 12.0 | 0.00 | 0.00 | 0.00 | 13 | 1017.0 |
| 20260509231030 | 72 | 333 | 11.0 | 18.0 | 0.00 | 0.00 | 0.00 | 11 | 1017.0 |
| 20260509230530 | 72 | 304 | 8.0 | 12.0 | 0.00 | 0.00 | 0.00 | 14 | 1017.0 |
| 20260509230031 | 72 | 21 | 13.0 | 17.0 | 0.00 | 0.00 | 0.00 | 13 | 1017.0 |
| 20260509225529 | 71 | 323 | 9.0 | 20.0 | 0.00 | 0.00 | 0.00 | 13 | 1017.0 |
| 20260509225029 | 71 | 294 | 17.0 | 24.0 | 0.00 | 0.00 | 0.00 | 14 | 1017.0 |
| 20260509224529 | 71 | 297 | 10.0 | 18.0 | 0.00 | 0.00 | 0.00 | 14 | 1017.0 |
| 20260509224029 | 71 | 331 | 15.0 | 25.0 | 0.00 | 0.00 | 0.00 | 14 | 1017.0 |
| 20260509223530 | 71 | 323 | 8.0 | 15.0 | 0.00 | 0.00 | 0.00 | 15 | 1017.0 |
| 20260509223030 | 71 | 293 | 13.0 | 27.0 | 0.00 | 0.00 | 0.00 | 15 | 1017.0 |
| 20260509222530 | 71 | 338 | 12.0 | 17.0 | 0.00 | 0.00 | 0.00 | 15 | 1017.0 |
| 20260509222035 | 71 | 329 | 14.0 | 21.0 | 0.00 | 0.00 | 0.00 | 14 | 1017.0 |
| 20260509221530 | 72 | 318 | 11.0 | 23.0 | 0.00 | 0.00 | 0.00 | 15 | 1017.0 |
| 20260509221030 | 72 | 305 | 9.0 | 15.0 | 0.00 | 0.00 | 0.00 | 14 | 1017.0 |
| 20260509220530 | 72 | 326 | 11.0 | 17.0 | 0.00 | 0.00 | 0.00 | 16 | 1017.0 |
| 20260509220029 | 72 | 336 | 12.0 | 16.0 | 0.00 | 0.00 | 0.00 | 16 | 1017.0 |
| 20260509215529 | 71 | 319 | 8.0 | 12.0 | 0.00 | 0.00 | 0.00 | 17 | 1017.0 |
| 20260509215029 | 71 | 316 | 9.0 | 20.0 | 0.00 | 0.00 | 0.00 | 17 | 1017.0 |
| 20260509214530 | 71 | 296 | 13.0 | 20.0 | 0.00 | 0.00 | 0.00 | 18 | 1017.0 |
| 20260509214029 | 71 | 335 | 13.0 | 22.0 | 0.00 | 0.00 | 0.00 | 18 | 1017.0 |
| 20260509213530 | 71 | 301 | 7.0 | 17.0 | 0.00 | 0.00 | 0.00 | 17 | 1017.0 |
| 20260509213031 | 71 | 325 | 9.0 | 19.0 | 0.00 | 0.00 | 0.00 | 17 | 1017.0 |
| 20260509212529 | 71 | 297 | 9.0 | 16.0 | 0.00 | 0.00 | 0.00 | 17 | 1017.0 |
| 20260509212029 | 70 | 320 | 8.0 | 16.0 | 0.00 | 0.00 | 0.00 | 17 | 1017.0 |
| 20260509211529 | 70 | 327 | 13.0 | 23.0 | 0.00 | 0.00 | 0.00 | 17 | 1017.0 |
| 20260509211029 | 71 | 313 | 7.0 | 14.0 | 0.00 | 0.00 | 0.00 | 17 | 1017.0 |
| 20260509210529 | 71 | 318 | 10.0 | 18.0 | 0.00 | 0.00 | 0.00 | 17 | 1017.0 |
| 20260509205531 | 71 | 34 | 12.0 | 17.0 | 0.00 | 0.00 | 0.00 | 17 | 1017.0 |
| 20260509205031 | 71 | 324 | 9.0 | 17.0 | 0.00 | 0.00 | 0.00 | 19 | 1018.0 |
| 20260509204530 | 71 | 313 | 7.0 | 12.0 | 0.00 | 0.00 | 0.00 | 17 | 1018.0 |
| 20260509204031 | 70 | 294 | 11.0 | 17.0 | 0.00 | 0.00 | 0.00 | 18 | 1018.0 |
| 20260509203529 | 70 | 291 | 9.0 | 17.0 | 0.00 | 0.00 | 0.00 | 18 | 1018.0 |
| 20260509203029 | 70 | 314 | 13.0 | 20.0 | 0.00 | 0.00 | 0.00 | 17 | 1018.0 |
| 20260509202529 | 70 | 340 | 7.0 | 13.0 | 0.00 | 0.00 | 0.00 | 16 | 1018.0 |
| 20260509202029 | 70 | 328 | 9.0 | 17.0 | 0.00 | 0.00 | 0.00 | 17 | 1018.0 |
| 20260509201529 | 70 | 326 | 13.0 | 22.0 | 0.00 | 0.00 | 0.00 | 18 | 1018.0 |
| 20260509201031 | 70 | 307 | 13.0 | 25.0 | 0.00 | 0.00 | 0.00 | 17 | 1018.0 |
| 20260509200530 | 70 | 339 | 9.0 | 14.0 | 0.00 | 0.00 | 0.00 | 17 | 1018.0 |
| 20260509200031 | 70 | 308 | 9.0 | 17.0 | 0.00 | 0.00 | 0.00 | 17 | 1018.0 |
| 20260509195529 | 69 | 318 | 9.0 | 15.0 | 0.00 | 0.00 | 0.00 | 17 | 1018.0 |
| 20260509195029 | 69 | 319 | 13.0 | 23.0 | 0.00 | 0.00 | 0.00 | 17 | 1018.0 |
| 20260509194532 | 69 | 295 | 11.0 | 17.0 | 0.00 | 0.00 | 0.00 | 17 | 1018.0 |
| 20260509194030 | 69 | 326 | 12.0 | 25.0 | 0.00 | 0.00 | 0.00 | 17 | 1018.0 |
| 20260509193530 | 69 | 12 | 9.0 | 21.0 | 0.00 | 0.00 | 0.00 | 18 | 1018.0 |
| 20260509193030 | 69 | 307 | 8.0 | 19.0 | 0.00 | 0.00 | 0.00 | 18 | 1018.0 |
| 20260509192529 | 69 | 287 | 11.0 | 22.0 | 0.00 | 0.00 | 0.00 | 19 | 1018.0 |
| 20260509192029 | 68 | 324 | 9.0 | 14.0 | 0.00 | 0.00 | 0.00 | 19 | 1018.0 |
| 20260509191530 | 68 | 1 | 9.0 | 23.0 | 0.00 | 0.00 | 0.00 | 18 | 1018.0 |
| 20260509191029 | 69 | 325 | 8.0 | 14.0 | 0.00 | 0.00 | 0.00 | 15 | 1018.0 |
| 20260509190529 | 68 | 330 | 13.0 | 19.0 | 0.00 | 0.00 | 0.00 | 16 | 1018.0 |
| 20260509190029 | 68 | 323 | 10.0 | 15.0 | 0.00 | 0.00 | 0.00 | 16 | 1018.0 |
| 20260509185529 | 68 | 300 | 6.0 | 16.0 | 0.00 | 0.00 | 0.00 | 18 | 1018.0 |
| 20260509185029 | 68 | 302 | 13.0 | 19.0 | 0.00 | 0.00 | 0.00 | 18 | 1018.0 |
| 20260509184529 | 69 | 325 | 8.0 | 17.0 | 0.00 | 0.00 | 0.00 | 18 | 1018.0 |
| 20260509184029 | 69 | 345 | 9.0 | 20.0 | 0.00 | 0.00 | 0.00 | 19 | 1018.0 |
| 20260509183529 | 68 | 18 | 6.0 | 13.0 | 0.00 | 0.00 | 0.00 | 19 | 1018.0 |
| 20260509183029 | 67 | 310 | 11.0 | 20.0 | 0.00 | 0.00 | 0.00 | 19 | 1019.0 |
| 20260509182530 | 68 | 310 | 13.0 | 23.0 | 0.00 | 0.00 | 0.00 | 17 | 1019.0 |
| 20260509182030 | 67 | 318 | 12.0 | 17.0 | 0.00 | 0.00 | 0.00 | 18 | 1019.0 |
| 20260509181529 | 67 | 301 | 17.0 | 25.0 | 0.00 | 0.00 | 0.00 | 17 | 1019.0 |
| 20260509181031 | 66 | 304 | 8.0 | 15.0 | 0.00 | 0.00 | 0.00 | 16 | 1019.0 |
| 20260509180530 | 66 | 308 | 11.0 | 15.0 | 0.00 | 0.00 | 0.00 | 18 | 1019.0 |
| 20260509180032 | 67 | 315 | 12.0 | 17.0 | 0.00 | 0.00 | 0.00 | 17 | 1019.0 |
| 20260509175529 | 67 | 326 | 10.0 | 18.0 | 0.00 | 0.00 | 0.00 | 17 | 1019.0 |
| 20260509175030 | 67 | 15 | 4.0 | 9.0 | 0.00 | 0.00 | 0.00 | 18 | 1019.0 |
| 20260509174530 | 67 | 315 | 11.0 | 21.0 | 0.00 | 0.00 | 0.00 | 17 | 1019.0 |
| 20260509174029 | 67 | 34 | 11.0 | 16.0 | 0.00 | 0.00 | 0.00 | 15 | 1019.0 |
| 20260509173530 | 67 | 331 | 7.0 | 13.0 | 0.00 | 0.00 | 0.00 | 18 | 1019.0 |
| 20260509173030 | 66 | 316 | 9.0 | 17.0 | 0.00 | 0.00 | 0.00 | 16 | 1019.0 |
| 20260509172532 | 66 | 299 | 11.0 | 28.0 | 0.00 | 0.00 | 0.00 | 16 | 1018.0 |
| 20260509172031 | 66 | 310 | 13.0 | 20.0 | 0.00 | 0.00 | 0.00 | 16 | 1019.0 |
| 20260509171530 | 66 | 339 | 8.0 | 13.0 | 0.00 | 0.00 | 0.00 | 16 | 1019.0 |
| 20260509171031 | 66 | 320 | 9.0 | 13.0 | 0.00 | 0.00 | 0.00 | 17 | 1019.0 |
| 20260509170529 | 65 | 323 | 14.0 | 18.0 | 0.00 | 0.00 | 0.00 | 18 | 1019.0 |
| 20260509170029 | 66 | 309 | 9.0 | 17.0 | 0.00 | 0.00 | 0.00 | 17 | 1018.0 |
| 20260509165530 | 66 | 299 | 15.0 | 29.0 | 0.00 | 0.00 | 0.00 | 16 | 1018.0 |
| 20260509165032 | 66 | 318 | 7.0 | 12.0 | 0.00 | 0.00 | 0.00 | 19 | 1019.0 |
| 20260509164529 | 66 | 326 | 12.0 | 17.0 | 0.00 | 0.00 | 0.00 | 18 | 1019.0 |
| 20260509164029 | 66 | 304 | 12.0 | 25.0 | 0.00 | 0.00 | 0.00 | 19 | 1019.0 |
| 20260509163529 | 66 | 300 | 14.0 | 25.0 | 0.00 | 0.00 | 0.00 | 19 | 1019.0 |
| 20260509163031 | 66 | 308 | 13.0 | 30.0 | 0.00 | 0.00 | 0.00 | 19 | 1018.0 |
| 20260509162530 | 66 | 7 | 10.0 | 17.0 | 0.00 | 0.00 | 0.00 | 19 | 1019.0 |
| 20260509162030 | 65 | 338 | 8.0 | 17.0 | 0.00 | 0.00 | 0.00 | 21 | 1019.0 |
| 20260509161531 | 65 | 15 | 13.0 | 20.0 | 0.00 | 0.00 | 0.00 | 19 | 1019.0 |
| 20260509161032 | 65 | 301 | 13.0 | 19.0 | 0.00 | 0.00 | 0.00 | 20 | 1018.0 |
| 20260509160530 | 64 | 325 | 9.0 | 15.0 | 0.00 | 0.00 | 0.00 | 20 | 1018.0 |
| 20260509160031 | 65 | 305 | 13.0 | 28.0 | 0.00 | 0.00 | 0.00 | 21 | 1018.0 |
| 20260509155531 | 65 | 316 | 13.0 | 19.0 | 0.00 | 0.00 | 0.00 | 22 | 1018.0 |
| 20260509154624 | 64 | 302 | 9.0 | 15.0 | 0.00 | 0.00 | 0.00 | 24 | 1018.0 |
| 20260509154029 | 64 | 305 | 12.0 | 19.0 | 0.00 | 0.00 | 0.00 | 23 | 1018.0 |
| 20260509153530 | 64 | 328 | 11.0 | 18.0 | 0.00 | 0.00 | 0.00 | 23 | 1018.0 |
| 20260509153031 | 64 | 333 | 7.0 | 10.0 | 0.00 | 0.00 | 0.00 | 25 | 1018.0 |
| 20260509152531 | 63 | 296 | 11.0 | 17.0 | 0.00 | 0.00 | 0.00 | 25 | 1018.0 |
| 20260509152031 | 63 | 300 | 9.0 | 13.0 | 0.00 | 0.00 | 0.00 | 26 | 1018.0 |
| 20260509151530 | 63 | 309 | 9.0 | 12.0 | 0.00 | 0.00 | 0.00 | 27 | 1018.0 |
| 20260509151031 | 63 | 320 | 9.0 | 12.0 | 0.00 | 0.00 | 0.00 | 27 | 1018.0 |
| 20260509150531 | 62 | 274 | 8.0 | 12.0 | 0.00 | 0.00 | 0.00 | 27 | 1018.0 |
| 20260509150033 | 62 | 294 | 10.0 | 16.0 | 0.00 | 0.00 | 0.00 | 28 | 1018.0 |
| 20260509145529 | 62 | 316 | 8.0 | 10.0 | 0.00 | 0.00 | 0.00 | 28 | 1018.0 |
| 20260509145029 | 62 | 278 | 9.0 | 16.0 | 0.00 | 0.00 | 0.00 | 29 | 1018.0 |
| 20260509144531 | 62 | 289 | 9.0 | 15.0 | 0.00 | 0.00 | 0.00 | 28 | 1018.0 |
| 20260509144029 | 62 | 294 | 8.0 | 14.0 | 0.00 | 0.00 | 0.00 | 29 | 1018.0 |
| 20260509143530 | 62 | 306 | 6.0 | 10.0 | 0.00 | 0.00 | 0.00 | 29 | 1018.0 |
| 20260509143032 | 62 | 297 | 9.0 | 12.0 | 0.00 | 0.00 | 0.00 | 28 | 1018.0 |
| 20260509142531 | 61 | 289 | 7.0 | 12.0 | 0.00 | 0.00 | 0.00 | 28 | 1018.0 |
| 20260509142030 | 61 | 310 | 4.0 | 9.0 | 0.00 | 0.00 | 0.00 | 28 | 1018.0 |
| 20260509141530 | 61 | 322 | 12.0 | 17.0 | 0.00 | 0.00 | 0.00 | 27 | 1018.0 |
| 20260509140600 | 61 | 307 | 11.0 | 21.0 | 0.00 | 0.00 | 0.00 | 28 | 1018.0 |
| 20260509140031 | 60 | 305 | 9.0 | 13.0 | 0.00 | 0.00 | 0.00 | 28 | 1018.0 |
| 20260509135537 | 60 | 298 | 5.0 | 9.0 | 0.00 | 0.00 | 0.00 | 29 | 1018.0 |
| 20260509135029 | 60 | 309 | 6.0 | 11.0 | 0.00 | 0.00 | 0.00 | 29 | 1018.0 |
| 20260509134529 | 60 | 302 | 9.0 | 17.0 | 0.00 | 0.00 | 0.00 | 29 | 1018.0 |
| 20260509134030 | 60 | 345 | 7.0 | 16.0 | 0.00 | 0.00 | 0.00 | 30 | 1018.0 |
| 20260509133529 | 59 | 329 | 9.0 | 13.0 | 0.00 | 0.00 | 0.00 | 30 | 1018.0 |
| 20260509133029 | 59 | 337 | 5.0 | 9.0 | 0.00 | 0.00 | 0.00 | 30 | 1018.0 |
| 20260509132530 | 59 | 309 | 9.0 | 15.0 | 0.00 | 0.00 | 0.00 | 31 | 1018.0 |
| 20260509132029 | 59 | 313 | 8.0 | 15.0 | 0.00 | 0.00 | 0.00 | 31 | 1017.0 |
| 20260509131530 | 58 | 307 | 9.0 | 15.0 | 0.00 | 0.00 | 0.00 | 31 | 1017.0 |
| 20260509131030 | 58 | 316 | 10.0 | 16.0 | 0.00 | 0.00 | 0.00 | 31 | 1017.0 |
| 20260509130532 | 58 | 306 | 9.0 | 13.0 | 0.00 | 0.00 | 0.00 | 32 | 1017.0 |
| 20260509130031 | 58 | 311 | 12.0 | 19.0 | 0.00 | 0.00 | 0.00 | 32 | 1017.0 |
| 20260509125529 | 58 | 304 | 11.0 | 16.0 | 0.00 | 0.00 | 0.00 | 31 | 1017.0 |
| 20260509125029 | 58 | 314 | 7.0 | 9.0 | 0.00 | 0.00 | 0.00 | 32 | 1017.0 |
| 20260509124529 | 58 | 308 | 9.0 | 14.0 | 0.00 | 0.00 | 0.00 | 32 | 1017.0 |
| 20260509124029 | 58 | 314 | 10.0 | 20.0 | 0.00 | 0.00 | 0.00 | 31 | 1017.0 |
| 20260509123529 | 58 | 316 | 9.0 | 16.0 | 0.00 | 0.00 | 0.00 | 32 | 1017.0 |
| 20260509123030 | 58 | 312 | 9.0 | 13.0 | 0.00 | 0.00 | 0.00 | 33 | 1017.0 |
| 20260509122530 | 58 | 308 | 9.0 | 14.0 | 0.00 | 0.00 | 0.00 | 32 | 1017.0 |
| 20260509122030 | 58 | 317 | 9.0 | 13.0 | 0.00 | 0.00 | 0.00 | 32 | 1017.0 |
| 20260509121530 | 58 | 330 | 9.0 | 13.0 | 0.00 | 0.00 | 0.00 | 32 | 1017.0 |
| 20260509121031 | 58 | 312 | 11.0 | 18.0 | 0.00 | 0.00 | 0.00 | 31 | 1017.0 |
| 20260509120530 | 58 | 311 | 8.0 | 16.0 | 0.00 | 0.00 | 0.00 | 31 | 1017.0 |
| 20260509120031 | 58 | 319 | 5.0 | 13.0 | 0.00 | 0.00 | 0.00 | 31 | 1016.0 |
| 20260509115530 | 58 | 320 | 5.0 | 8.0 | 0.00 | 0.00 | 0.00 | 32 | 1016.0 |
| 20260509115030 | 58 | 329 | 8.0 | 14.0 | 0.00 | 0.00 | 0.00 | 31 | 1016.0 |
| 20260509114530 | 58 | 329 | 11.0 | 17.0 | 0.00 | 0.00 | 0.00 | 32 | 1016.0 |
| 20260509114032 | 58 | 355 | 6.0 | 14.0 | 0.00 | 0.00 | 0.00 | 32 | 1016.0 |
| 20260509113529 | 58 | 337 | 9.0 | 17.0 | 0.00 | 0.00 | 0.00 | 34 | 1016.0 |
| 20260509113030 | 58 | 323 | 9.0 | 14.0 | 0.00 | 0.00 | 0.00 | 34 | 1016.0 |
| 20260509112529 | 58 | 341 | 9.0 | 19.0 | 0.00 | 0.00 | 0.00 | 33 | 1016.0 |
| 20260509112031 | 58 | 341 | 10.0 | 19.0 | 0.00 | 0.00 | 0.00 | 34 | 1016.0 |
| 20260509111529 | 59 | 336 | 9.0 | 17.0 | 0.00 | 0.00 | 0.00 | 34 | 1016.0 |
| 20260509111029 | 59 | 347 | 10.0 | 26.0 | 0.00 | 0.00 | 0.00 | 34 | 1016.0 |
| 20260509110531 | 59 | 344 | 8.0 | 13.0 | 0.00 | 0.00 | 0.00 | 35 | 1016.0 |
| 20260509110029 | 59 | 348 | 11.0 | 17.0 | 0.00 | 0.00 | 0.00 | 35 | 1016.0 |
| 20260509105529 | 59 | 347 | 10.0 | 17.0 | 0.00 | 0.00 | 0.00 | 35 | 1016.0 |
| 20260509105029 | 59 | 348 | 11.0 | 24.0 | 0.00 | 0.00 | 0.00 | 35 | 1016.0 |
| 20260509104531 | 59 | 347 | 11.0 | 19.0 | 0.00 | 0.00 | 0.00 | 35 | 1016.0 |
| 20260509104031 | 59 | 344 | 12.0 | 17.0 | 0.00 | 0.00 | 0.00 | 34 | 1016.0 |
| 20260509103531 | 60 | 339 | 5.0 | 12.0 | 0.00 | 0.00 | 0.00 | 35 | 1016.0 |
| 20260509103031 | 60 | 342 | 7.0 | 16.0 | 0.00 | 0.00 | 0.00 | 35 | 1016.0 |
| 20260509102529 | 60 | 344 | 14.0 | 30.0 | 0.00 | 0.00 | 0.00 | 35 | 1016.0 |
| 20260509102030 | 60 | 345 | 10.0 | 23.0 | 0.00 | 0.00 | 0.00 | 37 | 1015.0 |
| 20260509101529 | 60 | 347 | 11.0 | 21.0 | 0.00 | 0.00 | 0.00 | 37 | 1015.0 |
| 20260509101031 | 60 | 349 | 10.0 | 21.0 | 0.00 | 0.00 | 0.00 | 38 | 1015.0 |
| 20260509100529 | 60 | 349 | 13.0 | 22.0 | 0.00 | 0.00 | 0.00 | 37 | 1015.0 |
| 20260509100031 | 60 | 323 | 9.0 | 16.0 | 0.00 | 0.00 | 0.00 | 36 | 1015.0 |
| 20260509095529 | 60 | 331 | 8.0 | 20.0 | 0.00 | 0.00 | 0.00 | 36 | 1015.0 |
| 20260509095030 | 60 | 359 | 14.0 | 29.0 | 0.00 | 0.00 | 0.00 | 37 | 1015.0 |
| 20260509094529 | 60 | 333 | 13.0 | 22.0 | 0.00 | 0.00 | 0.00 | 37 | 1015.0 |
| 20260509094031 | 60 | 328 | 13.0 | 19.0 | 0.00 | 0.00 | 0.00 | 38 | 1015.0 |
| 20260509093529 | 60 | 341 | 9.0 | 17.0 | 0.00 | 0.00 | 0.00 | 40 | 1015.0 |
| 20260509093030 | 60 | 312 | 10.0 | 13.0 | 0.00 | 0.00 | 0.00 | 40 | 1015.0 |
| 20260509092534 | 61 | 313 | 10.0 | 18.0 | 0.00 | 0.00 | 0.00 | 40 | 1015.0 |
| 20260509092031 | 61 | 340 | 10.0 | 26.0 | 0.00 | 0.00 | 0.00 | 38 | 1015.0 |
| 20260509091530 | 61 | 329 | 10.0 | 17.0 | 0.00 | 0.00 | 0.00 | 38 | 1015.0 |
| 20260509091029 | 62 | 334 | 11.0 | 20.0 | 0.00 | 0.00 | 0.00 | 37 | 1015.0 |
| 20260509090529 | 62 | 296 | 10.0 | 22.0 | 0.00 | 0.00 | 0.00 | 36 | 1015.0 |
| 20260509090030 | 62 | 311 | 13.0 | 19.0 | 0.00 | 0.00 | 0.00 | 35 | 1015.0 |
| 20260509085529 | 62 | 291 | 10.0 | 16.0 | 0.00 | 0.00 | 0.00 | 36 | 1015.0 |
| 20260509085030 | 62 | 305 | 10.0 | 18.0 | 0.00 | 0.00 | 0.00 | 35 | 1015.0 |
| 20260509084530 | 63 | 302 | 8.0 | 16.0 | 0.00 | 0.00 | 0.00 | 35 | 1015.0 |
| 20260509084029 | 63 | 319 | 10.0 | 15.0 | 0.00 | 0.00 | 0.00 | 36 | 1015.0 |
| 20260509083529 | 63 | 297 | 9.0 | 16.0 | 0.00 | 0.00 | 0.00 | 37 | 1015.0 |
| 20260509082554 | 63 | 303 | 9.0 | 12.0 | 0.00 | 0.00 | 0.00 | 39 | 1015.0 |
| 20260509082031 | 63 | 306 | 9.0 | 13.0 | 0.00 | 0.00 | 0.00 | 38 | 1015.0 |
| 20260509081531 | 63 | 323 | 9.0 | 16.0 | 0.00 | 0.00 | 0.00 | 39 | 1015.0 |
| 20260509081031 | 63 | 323 | 13.0 | 21.0 | 0.00 | 0.00 | 0.00 | 39 | 1015.0 |
| 20260509080529 | 63 | 307 | 8.0 | 16.0 | 0.00 | 0.00 | 0.00 | 40 | 1015.0 |
| 20260509080031 | 63 | 319 | 9.0 | 16.0 | 0.00 | 0.00 | 0.00 | 41 | 1015.0 |
| 20260509075529 | 63 | 303 | 8.0 | 13.0 | 0.00 | 0.00 | 0.00 | 39 | 1015.0 |
| 20260509075031 | 64 | 292 | 9.0 | 14.0 | 0.00 | 0.00 | 0.00 | 38 | 1015.0 |
| 20260509074530 | 64 | 312 | 10.0 | 14.0 | 0.00 | 0.00 | 0.00 | 38 | 1015.0 |
| 20260509074031 | 64 | 293 | 12.0 | 16.0 | 0.00 | 0.00 | 0.00 | 37 | 1015.0 |
| 20260509073529 | 63 | 304 | 11.0 | 16.0 | 0.00 | 0.00 | 0.00 | 37 | 1015.0 |
| 20260509073031 | 61 | 315 | 9.0 | 13.0 | 0.00 | 0.00 | 0.00 | 36 | 1015.0 |
| 20260509072530 | 58 | 307 | 6.0 | 12.0 | 0.00 | 0.00 | 0.00 | 39 | 1015.0 |
| 20260509072029 | 57 | 28 | 3.0 | 4.0 | 0.00 | 0.00 | 0.00 | 43 | 1015.0 |
| 20260509071529 | 58 | 0 | 0.0 | 0.0 | 0.00 | 0.00 | 0.00 | 41 | 1015.0 |
| 20260509071029 | 58 | 0 | 0.0 | 0.0 | 0.00 | 0.00 | 0.00 | 43 | 1015.0 |
| 20260509070529 | 58 | 0 | 0.0 | 0.0 | 0.00 | 0.00 | 0.00 | 39 | 1015.0 |
| 20260509070029 | 58 | 334 | 0.0 | 0.0 | 0.00 | 0.00 | 0.00 | 41 | 1015.0 |
| 20260509065529 | 59 | 0 | 0.0 | 0.0 | 0.00 | 0.00 | 0.00 | 40 | 1015.0 |
| 20260509065030 | 59 | 87 | 3.0 | 4.0 | 0.00 | 0.00 | 0.00 | 36 | 1014.0 |
| 20260509064529 | 59 | 92 | 2.0 | 4.0 | 0.00 | 0.00 | 0.00 | 37 | 1014.0 |
| 20260509064029 | 60 | 98 | 2.0 | 5.0 | 0.00 | 0.00 | 0.00 | 37 | 1014.0 |
| 20260509063530 | 60 | 36 | 4.0 | 4.0 | 0.00 | 0.00 | 0.00 | 36 | 1014.0 |
| 20260509063030 | 61 | 30 | 4.0 | 4.0 | 0.00 | 0.00 | 0.00 | 36 | 1015.0 |
| 20260509062530 | 61 | 54 | 4.0 | 4.0 | 0.00 | 0.00 | 0.00 | 34 | 1015.0 |
| 20260509062030 | 61 | 38 | 3.0 | 4.0 | 0.00 | 0.00 | 0.00 | 33 | 1015.0 |
| 20260509061529 | 62 | 30 | 3.0 | 3.0 | 0.00 | 0.00 | 0.00 | 32 | 1015.0 |
| 20260509061031 | 61 | 16 | 4.0 | 6.0 | 0.00 | 0.00 | 0.00 | 32 | 1015.0 |
| 20260509060530 | 61 | 18 | 3.0 | 4.0 | 0.00 | 0.00 | 0.00 | 33 | 1015.0 |
| 20260509060031 | 61 | 48 | 5.0 | 5.0 | 0.00 | 0.00 | 0.00 | 33 | 1015.0 |
| 20260509055530 | 61 | 32 | 4.0 | 6.0 | 0.00 | 0.00 | 0.00 | 33 | 1015.0 |
| 20260509055030 | 61 | 49 | 6.0 | 6.0 | 0.00 | 0.00 | 0.00 | 34 | 1015.0 |
| 20260509054529 | 60 | 92 | 3.0 | 5.0 | 0.00 | 0.00 | 0.00 | 34 | 1015.0 |
| 20260509054030 | 60 | 34 | 5.0 | 9.0 | 0.00 | 0.00 | 0.00 | 34 | 1014.0 |
| 20260509053530 | 60 | 42 | 7.0 | 9.0 | 0.00 | 0.00 | 0.00 | 37 | 1014.0 |
| 20260509053029 | 60 | 48 | 4.0 | 4.0 | 0.00 | 0.00 | 0.00 | 38 | 1014.0 |
| 20260509052529 | 60 | 60 | 4.0 | 4.0 | 0.00 | 0.00 | 0.00 | 37 | 1014.0 |
| 20260509052030 | 60 | 54 | 4.0 | 4.0 | 0.00 | 0.00 | 0.00 | 37 | 1014.0 |